| time (UTC) | temp F | wind direction | speed MPH | gust MPH | rain 1hr in | rain 24hr in | rain mn in | humidity % | barometer mb |
| 20260504050527 | 63 | 113 | 0.0 | 1.0 | 0.00 | 0.00 | 0.00 | 69 | 1020.7 |
| 20260504045535 | 63 | 0.0 | 2.0 | 0.00 | 0.00 | 0.00 | 69 | 1020.7 | |
| 20260504044524 | 64 | 158 | 0.0 | 2.0 | 0.00 | 0.00 | 0.00 | 68 | 1020.8 |
| 20260504043532 | 64 | 167 | 0.0 | 2.0 | 0.00 | 0.00 | 0.00 | 67 | 1021.0 |
| 20260504042521 | 64 | 168 | 1.0 | 2.0 | 0.00 | 0.00 | 0.00 | 66 | 1021.0 |
| 20260504041530 | 64 | 209 | 1.0 | 3.0 | 0.00 | 0.00 | 0.00 | 63 | 1021.0 |
| 20260504040618 | 65 | 135 | 0.0 | 2.0 | 0.00 | 0.00 | 0.00 | 61 | 1020.9 |
| 20260504035528 | 66 | 136 | 1.0 | 3.0 | 0.00 | 0.00 | 0.00 | 59 | 1020.7 |
| 20260504034557 | 66 | 144 | 2.0 | 3.0 | 0.00 | 0.00 | 0.00 | 58 | 1020.8 |
| 20260504033524 | 66 | 149 | 1.0 | 2.0 | 0.00 | 0.00 | 0.00 | 57 | 1020.8 |
| 20260504032533 | 66 | 0.0 | 0.0 | 0.00 | 0.00 | 0.00 | 56 | 1020.9 | |
| 20260504031521 | 67 | 143 | 1.0 | 3.0 | 0.00 | 0.00 | 0.00 | 55 | 1020.9 |
| 20260504030550 | 67 | 159 | 2.0 | 4.0 | 0.00 | 0.00 | 0.00 | 55 | 1020.9 |
| 20260504025520 | 66 | 0.0 | 0.0 | 0.00 | 0.00 | 0.00 | 55 | 1020.8 | |
| 20260504024527 | 67 | 161 | 1.0 | 3.0 | 0.00 | 0.00 | 0.00 | 53 | 1020.6 |
| 20260504023535 | 66 | 0.0 | 0.0 | 0.00 | 0.00 | 0.00 | 53 | 1020.6 | |
| 20260504022524 | 66 | 142 | 1.0 | 3.0 | 0.00 | 0.00 | 0.00 | 53 | 1020.5 |
| 20260504021533 | 66 | 0.0 | 0.0 | 0.00 | 0.00 | 0.00 | 55 | 1020.5 | |
| 20260504020525 | 67 | 0.0 | 0.0 | 0.00 | 0.00 | 0.00 | 55 | 1020.3 | |
| 20260504015530 | 66 | 158 | 1.0 | 3.0 | 0.00 | 0.00 | 0.00 | 60 | 1020.2 |
| 20260504014519 | 66 | 0.0 | 0.0 | 0.00 | 0.00 | 0.00 | 59 | 1020.0 | |
| 20260504013527 | 67 | 0.0 | 0.0 | 0.00 | 0.00 | 0.00 | 59 | 1020.0 | |
| 20260504012537 | 67 | 0.0 | 1.0 | 0.00 | 0.00 | 0.00 | 59 | 1020.0 | |
| 20260504011527 | 68 | 0.0 | 0.0 | 0.00 | 0.00 | 0.00 | 54 | 1019.8 | |
| 20260504010533 | 69 | 0.0 | 0.0 | 0.00 | 0.00 | 0.00 | 51 | 1019.8 | |
| 20260504005605 | 70 | 0.0 | 0.0 | 0.00 | 0.00 | 0.00 | 46 | 1019.7 | |
| 20260504004531 | 71 | 0.0 | 0.0 | 0.00 | 0.00 | 0.00 | 44 | 1019.7 | |
| 20260504003541 | 72 | 0.0 | 0.0 | 0.00 | 0.00 | 0.00 | 42 | 1019.7 | |
| 20260504002528 | 73 | 57 | 1.0 | 3.0 | 0.00 | 0.00 | 0.00 | 41 | 1019.6 |
| 20260504001616 | 74 | 339 | 0.0 | 2.0 | 0.00 | 0.00 | 0.00 | 40 | 1019.5 |
| 20260504000525 | 76 | 51 | 1.0 | 3.0 | 0.00 | 0.00 | 0.00 | 39 | 1019.5 |
| 20260503235553 | 78 | 178 | 1.0 | 3.0 | 0.00 | 0.00 | 0.00 | 37 | 1019.6 |
| 20260503234523 | 80 | 13 | 1.0 | 3.0 | 0.00 | 0.00 | 0.00 | 35 | 1019.6 |
| 20260503233532 | 83 | 301 | 1.0 | 4.0 | 0.00 | 0.00 | 0.00 | 32 | 1019.7 |
| 20260503232521 | 83 | 292 | 0.0 | 2.0 | 0.00 | 0.00 | 0.00 | 32 | 1019.8 |
| 20260503231550 | 83 | 312 | 1.0 | 3.0 | 0.00 | 0.00 | 0.00 | 31 | 1019.8 |
| 20260503230536 | 83 | 325 | 2.0 | 4.0 | 0.00 | 0.00 | 0.00 | 32 | 1019.9 |
| 20260503225526 | 79 | 334 | 2.0 | 5.0 | 0.00 | 0.00 | 0.00 | 35 | 1019.9 |
| 20260503224534 | 79 | 331 | 3.0 | 4.0 | 0.00 | 0.00 | 0.00 | 34 | 1020.0 |
| 20260503223523 | 79 | 357 | 3.0 | 5.0 | 0.00 | 0.00 | 0.00 | 35 | 1020.0 |
| 20260503222532 | 80 | 291 | 2.0 | 3.0 | 0.00 | 0.00 | 0.00 | 35 | 1020.0 |
| 20260503221541 | 79 | 229 | 3.0 | 4.0 | 0.00 | 0.00 | 0.00 | 34 | 1020.1 |
| 20260503220529 | 79 | 341 | 2.0 | 5.0 | 0.00 | 0.00 | 0.00 | 35 | 1020.2 |
| 20260503215538 | 79 | 349 | 3.0 | 5.0 | 0.00 | 0.00 | 0.00 | 34 | 1020.3 |
| 20260503214526 | 79 | 28 | 2.0 | 4.0 | 0.00 | 0.00 | 0.00 | 36 | 1020.4 |
| 20260503213554 | 79 | 267 | 3.0 | 5.0 | 0.00 | 0.00 | 0.00 | 34 | 1020.5 |
| 20260503212546 | 79 | 180 | 3.0 | 4.0 | 0.00 | 0.00 | 0.00 | 33 | 1020.7 |
| 20260503211553 | 78 | 230 | 2.0 | 5.0 | 0.00 | 0.00 | 0.00 | 33 | 1020.8 |
| 20260503210522 | 79 | 262 | 2.0 | 5.0 | 0.00 | 0.00 | 0.00 | 33 | 1021.0 |
| 20260503205550 | 79 | 64 | 1.0 | 4.0 | 0.00 | 0.00 | 0.00 | 33 | 1021.1 |
| 20260503204537 | 79 | 330 | 3.0 | 5.0 | 0.00 | 0.00 | 0.00 | 34 | 1021.3 |
| 20260503203526 | 79 | 14 | 3.0 | 5.0 | 0.00 | 0.00 | 0.00 | 33 | 1021.4 |
| 20260503202534 | 79 | 330 | 2.0 | 4.0 | 0.00 | 0.00 | 0.00 | 34 | 1021.5 |
| 20260503201523 | 79 | 37 | 2.0 | 4.0 | 0.00 | 0.00 | 0.00 | 33 | 1021.8 |
| 20260503200531 | 79 | 199 | 4.0 | 6.0 | 0.00 | 0.00 | 0.00 | 33 | 1021.8 |
| 20260503195521 | 79 | 344 | 4.0 | 6.0 | 0.00 | 0.00 | 0.00 | 33 | 1021.9 |
| 20260503194529 | 79 | 335 | 4.0 | 6.0 | 0.00 | 0.00 | 0.00 | 34 | 1022.1 |
| 20260503193536 | 78 | 326 | 3.0 | 6.0 | 0.00 | 0.00 | 0.00 | 35 | 1022.3 |
| 20260503192608 | 78 | 2 | 4.0 | 7.0 | 0.00 | 0.00 | 0.00 | 34 | 1022.5 |
| 20260503191534 | 79 | 346 | 4.0 | 7.0 | 0.00 | 0.00 | 0.00 | 34 | 1022.6 |
| 20260503190544 | 78 | 347 | 4.0 | 6.0 | 0.00 | 0.00 | 0.00 | 34 | 1022.7 |
| 20260503185532 | 79 | 308 | 4.0 | 7.0 | 0.00 | 0.00 | 0.00 | 34 | 1022.8 |
| 20260503184520 | 78 | 343 | 4.0 | 7.0 | 0.00 | 0.00 | 0.00 | 33 | 1023.0 |
| 20260503183529 | 78 | 13 | 3.0 | 5.0 | 0.00 | 0.00 | 0.00 | 34 | 1022.9 |
| 20260503182537 | 78 | 54 | 2.0 | 5.0 | 0.00 | 0.00 | 0.00 | 34 | 1023.0 |
| 20260503181526 | 79 | 350 | 3.0 | 5.0 | 0.00 | 0.00 | 0.00 | 34 | 1023.1 |
| 20260503180554 | 78 | 306 | 4.0 | 6.0 | 0.00 | 0.00 | 0.00 | 33 | 1023.2 |
| 20260503175524 | 78 | 20 | 2.0 | 4.0 | 0.00 | 0.00 | 0.00 | 33 | 1023.4 |
| 20260503174531 | 77 | 340 | 2.0 | 4.0 | 0.00 | 0.00 | 0.00 | 35 | 1023.6 |
| 20260503173521 | 80 | 336 | 3.0 | 5.0 | 0.00 | 0.00 | 0.00 | 31 | 1023.9 |
| 20260503172530 | 79 | 52 | 2.0 | 4.0 | 0.00 | 0.00 | 0.00 | 31 | 1024.1 |
| 20260503171536 | 77 | 8 | 3.0 | 6.0 | 0.00 | 0.00 | 0.00 | 32 | 1024.2 |
| 20260503170526 | 77 | 107 | 2.0 | 4.0 | 0.00 | 0.00 | 0.00 | 34 | 1024.4 |
| 20260503150529 | 74 | 30 | 3.0 | 6.0 | 0.00 | 0.00 | 0.00 | 41 | 1024.3 |
| 20260503130532 | 60 | 0.0 | 0.0 | 0.00 | 0.00 | 0.00 | 86 | 1023.3 | |
| 20260503110536 | 52 | 0.0 | 0.0 | 0.00 | 0.00 | 0.00 | 81 | 1022.1 | |
| 20260503081523 | 62 | 0.0 | 0.0 | 0.00 | 0.01 | 0.00 | 61 | 1021.6 | |
| 20260503080532 | 63 | 0.0 | 0.0 | 0.00 | 0.01 | 0.00 | 59 | 1021.5 | |
| 20260503072527 | 63 | 73 | 1.0 | 4.0 | 0.00 | 0.02 | 0.00 | 59 | 1021.1 |
| 20260503071534 | 64 | 65 | 1.0 | 2.0 | 0.00 | 0.11 | 0.00 | 58 | 1021.2 |
| 20260503070752 | 0 | 23 | 2.0 | 2.0 | 0.00 | 0.14 | 0.00 | 1021.2 | |
| 20260503070523 | 64 | 3 | 2.0 | 3.0 | 0.00 | 0.14 | 0.00 | 56 | 1021.2 |